Weather observations for the past three days for
Rocky Mount, Rocky Mount-Wilson Regional Airport
Imperial (Metric)
Date Time (edt) Wind (mph) Vis. (mi.) Weather Sky Cond. Temperature (ºF) Relative Humidity Wind Chill (°F) Heat Index (°F) Pressure Precipitation (in)
Air Dwpt 6 hour altimeter (in) sea level (mb) 1 hr 3 hr 6 hr
Max. Min.
19 16:53 Calm 10.00 A Few Clouds FEW020 82.9 71.1 67% 88 30.06 1017.9 0.01
19 15:53 S 8 10.00 A Few Clouds FEW016 81 73 77% 86 30.06 1017.7 0.01
19 14:53 Calm 10.00 Light Rain FEW033 BKN047 OVC100 80.1 73.9 82% 85 30.08 1018.3
19 13:53 Calm 10.00 Overcast OVC080 79 73 81 75 82% 82 30.09 1018.9 0.01 0.27
19 12:53 Vrbl 6 10.00 Mostly Cloudy FEW012 SCT039 BKN070 80.1 73 79% 84 30.1 1019.2
19 11:53 NE 3 5.00 Light Rain Fog/Mist SCT036 SCT045 OVC060 78.1 73.9 87% 81 30.1 1019.1 0.26
19 10:53 E 3 10.00 Overcast FEW010 BKN018 OVC025 78.1 72 82% 80 30.09 1018.8
19 09:53 Calm 8.00 Overcast BKN014 BKN022 OVC028 78.1 72 82% 80 30.08 1018.5
19 08:53 Calm 10.00 Overcast SCT009 OVC019 77 73 88% 78 30.08 1018.5
19 07:53 Calm 9.00 Overcast BKN006 OVC011 75 72 75.9 73.9 90% 74 30.07 1018.1
19 06:53 Calm 6.00 Fog/Mist BKN013 OVC049 75 72 90% 74 30.05 1017.3
19 05:53 Calm 7.00 Overcast OVC016 73.9 72 94% 30.02 1016.5
19 04:53 Calm 7.00 Overcast FEW016 SCT021 OVC037 73.9 72 94% 30.01 1016.0
19 03:53 Calm 10.00 Overcast BKN007 OVC013 73.9 72 94% 30 1015.7
19 02:53 W 3 10.00 Mostly Cloudy BKN007 73.9 71.1 91% 29.99 1015.5
19 01:53 SW 3 10.00 Mostly Cloudy FEW008 SCT012 BKN120 73.9 71.1 75 73.9 91% 30.01 1016.0 0.01
19 00:53 S 3 10.00 Mostly Cloudy BKN007 73.9 71.1 91% 30.02 1016.4
18 23:53 S 3 8.00 Fair CLR 73.9 72 94% 30.02 1016.4 0.01
18 22:53 S 6 8.00 Overcast BKN004 BKN065 OVC090 73.9 72 94% 30.02 1016.4
18 21:53 Calm 8.00 Mostly Cloudy FEW004 BKN080 BKN100 73.9 72 94% 30.01 1016.0
18 20:53 E 3 8.00 Mostly Cloudy FEW005 SCT065 BKN100 73.9 71.1 91% 29.99 1015.4
18 19:53 S 3 10.00 Fair CLR 73.9 71.1 90 70 91% 29.96 1014.5 0.54
18 18:53 Calm 10.00 Light Rain FEW030 FEW100 73.9 71.1 91% 29.91 1012.8
18 17:53 S 5 10.00 Light Rain FEW036 FEW090 SCT110 73 70 90% 29.93 1013.2
18 16:53 Calm 9.00 Light Rain BKN100 BKN120 72 68 87% 29.93 1013.2 0.54 0.54
18 15:53 W 20 G 37 10.00 Thunderstorm in Vicinity SCT033 BKN046 BKN100 84 72 67% 90 29.94 1013.6
18 14:53 S 10 G 18 10.00 Mostly Cloudy SCT029 BKN037 89.1 73.9 61% 98 29.93 1013.5
18 13:53 SW 10 10.00 Mostly Cloudy BKN030 BKN036 88 73 90 77 61% 96 29.95 1013.9
18 12:53 S 10 10.00 Mostly Cloudy BKN025 87.1 73 63% 95 29.96 1014.2
18 11:53 S 10 10.00 A Few Clouds FEW022 84 73 70% 90 29.96 1014.5
18 10:53 SW 7 10.00 Overcast OVC015 81 72 74% 85 29.97 1014.6
18 09:53 SW 8 10.00 Overcast OVC013 79 72 79% 82 29.96 1014.4
18 08:53 SW 9 10.00 Mostly Cloudy BKN016 79 72 79% 82 29.96 1014.3
18 07:53 SW 10 10.00 Fair CLR 78.1 71.1 78.1 73 79% 80 29.96 1014.4
18 06:53 S 9 10.00 A Few Clouds FEW100 77 71.1 82% 79 29.95 1014.1
18 05:53 S 10 10.00 Fair CLR 77 70 79% 79 29.93 1013.3
18 04:53 S 5 10.00 Fair CLR 75 69.1 82% 75 29.92 1013.2
18 03:53 S 7 10.00 A Few Clouds FEW120 75 68 79% 76 29.93 1013.2
18 02:53 S 5 10.00 Fair CLR 73.9 68 82% 29.92 1012.9
18 01:53 NW 3 10.00 Overcast FEW034 BKN041 OVC049 75 66.9 84 75 76% 76 29.97 1014.8
18 00:53 N 15 10.00 Overcast BKN023 BKN034 OVC065 77 68 74% 79 29.99 1015.4
17 23:53 SW 3 10.00 Mostly Cloudy BKN021 BKN060 82.9 75 77% 90 29.95 1014.2
17 22:53 S 9 G 22 10.00 Mostly Cloudy BKN060 BKN075 82.9 75 77% 90 29.95 1013.9
17 21:53 S 9 10.00 Fair CLR 82.9 75 77% 90 29.94 1013.7
17 20:53 S 8 10.00 Fair CLR 82.9 73.9 74% 89 29.92 1012.8
17 19:53 S 8 10.00 Fair CLR 84 73.9 95 84 72% 91 29.91 1012.6
17 18:53 S 10 10.00 Fair CLR 84.9 75.9 75% 94 29.89 1012.0
17 17:53 S 15 G 28 10.00 A Few Clouds FEW043 89.1 73.9 61% 98 29.89 1011.8
17 16:53 S 14 10.00 A Few Clouds FEW047 93 73 52% 102 29.87 1011.4
17 15:53 SW 12 G 18 10.00 Mostly Cloudy SCT043 BKN060 93 73 52% 102 29.9 1012.4
17 14:53 S 10 10.00 Partly Cloudy SCT041 93 73.9 54% 103 29.92 1013.0
17 13:53 S 8 10.00 A Few Clouds FEW036 91.9 73.9 93 80.1 56% 102 29.94 1013.5
17 12:53 SW 10 G 20 10.00 Fair CLR 91.9 73.9 56% 102 29.95 1013.9
17 11:53 SW 7 10.00 Fair CLR 89.1 73.9 61% 98 29.96 1014.4
17 10:53 SW 10 10.00 Fair CLR 87.1 73 63% 95 29.97 1014.7
17 09:53 SW 8 10.00 Fair CLR 84.9 73 68% 92 29.98 1015.0
17 08:53 SW 7 10.00 Fair CLR 82 73 74% 87 29.99 1015.5
17 06:53 S 8 10.00 Fair CLR 77 71.1 82% 79 29.97 1014.6
17 05:53 SW 7 10.00 Fair CLR 77 70 79% 79 29.95 1013.9
17 04:53 S 8 10.00 Fair CLR 78.1 70 76% 80 29.93 1013.4
17 03:53 S 7 10.00 Fair CLR 78.1 70 76% 80 29.93 1013.3
17 02:53 S 8 10.00 Fair CLR 79 70 74% 82 29.93 1013.2
17 01:53 S 6 10.00 Fair CLR 80.1 70 90 80.1 71% 83 29.94 1013.7
17 00:53 SW 6 10.00 Fair CLR 80.1 70 71% 83 29.95 1014.2
16 23:53 SW 9 10.00 Fair CLR 82 69.1 65% 85 29.96 1014.4
16 22:53 S 10 10.00 Fair CLR 84 69.1 61% 88 29.95 1014.1
16 21:53 S 9 10.00 Fair CLR 87.1 71.1 59% 93 29.94 1013.5
16 20:53 SW 12 10.00 Thunderstorm in Vicinity CLR 88 73 61% 96 29.93 1013.3
16 19:53 S 5 10.00 Fair CLR 90 73 93.9 90 58% 98 29.91 1012.6
16 18:53 S 9 10.00 Fair CLR 91.9 73 54% 101 29.91 1012.6
16 17:53 S 12 G 20 10.00 Fair CLR 93.9 73 51% 103 29.89 1012.0
Date Time (edt) Wind (mph) Vis. (mi.) Weather Sky Cond. Air Dwpt Max. Min. Relative Humidity Wind Chill (°F) Heat Index (°F) altimeter (in) sea level (mb) 1 hr 3 hr 6 hr
6 hour
Temperature (ºF) Pressure Precipitation (in)